Location: La Comballaz
(46.3780°N, 7.0817°E)
Time: 08:08:36
(UTC+00:00)

Cosmos 2154 Rocket - Pass Details

Date: 09 April 2020
Orbit: 965 x 997 km, 82.9° (Epoch: 24 May)

Event Time Altitude Azimuth Distance (km) Brightness Sun altitude
Rises 19:23:01 0° 350° (N) 3,728 7.6 -12.4°
Reaches altitude 10° 19:25:33 10° 349° (N) 2,773 6.9 -12.8°
Maximum altitude 19:31:56 79° 264° (W) 1,015 4.2 -13.8°
Drops below altitude 10° 19:38:13 10° 179° (S) 2,738 6.1 -14.7°
Sets 19:40:42 0° 178° (S) 3,678 6.7 -15.1°
